This demonstration page uses our WeatherBlox Daily Observations layout. Learn more.

Left ArrowRight Arrow

34.02893, -84.19858

Hourly Observations for March 3, 2016

Temp ( °F °C ) Dew Point ( °F °C ) Humidity (%) Winds ( mph kmh ) Pressure ( in mb ) Visibility ( mi km ) Precip ( " mm )
12:53 am 00:53 Clear 37 2.8 28 -2.2 70 70 Calm 30.15 1021 10 16 0.00 0.00
1:53 am 01:53 Clear 38 3.3 31 -0.6 76 76 Calm 30.17 1022 10 16 0.00 0.00
2:53 am 02:53 Clear 37 2.8 28 -2.2 70 70 NNE 3 6 30.14 1021 10 16 0.00 0.00
3:53 am 03:53 Clear 36 2.2 29 -1.7 76 76 Calm 30.14 1021 10 16 0.00 0.00
4:53 am 04:53 Clear 39 3.9 27 -2.8 62 62 ENE 6 9 30.12 1020 10 16 0.00 0.00
5:53 am 05:53 Clear 38 3.3 27 -2.8 65 65 VRB 5 7 30.13 1020 10 16 0.00 0.00
6:53 am 06:53 Clear 38 3.3 27 -2.8 65 65 VRB 7 11 30.15 1021 10 16 0.00 0.00
7:53 am 07:53 Sunny 38 3.3 27 -2.8 65 65 VRB 7 11 30.15 1021 10 16 0.00 0.00
8:53 am 08:53 Sunny 42 5.6 28 -2.2 58 58 VRB 6 9 30.14 1021 10 16 0.00 0.00
9:53 am 09:53 Sunny 46 7.8 29 -1.7 51 51 SE 8 13 30.15 1021 10 16 0.00 0.00
10:53 am 10:53 Sunny 46 7.8 29 -1.7 51 51 ESE 12 19 30.09 1019 10 16 0.00 0.00
11:53 am 11:53 Cloudy 47 8.3 31 -0.6 54 54 N 7 11 30.11 1020 10 16 0.00 0.00
12:53 pm 12:53 Cloudy 46 7.8 31 -0.6 56 56 N 13 20 30.12 1020 10 16 0.00 0.00
1:48 pm 13:48 Cloudy with Heavy Rain 39 4 34 1 81 81 NNW 7 11 30.12 1020 2 3 0.00 0.00
1:53 pm 13:53 Cloudy with Rain 38 3.3 35 1.7 89 89 N 9 15 30.11 1020 2 2 0.06 1.52
2:15 pm 14:15 Cloudy with Rain 37 2.8 36 2.2 96 96 NNE 5 7 30.06 1018 2 3 0.07 1.78
2:27 pm 14:27 Cloudy with Light Rain 37 2.8 36 2.2 96 96 E 6 9 30.06 1018 3 5 0.09 2.29
2:35 pm 14:35 Cloudy with Heavy Rain 37 2.8 36 2.2 96 96 ESE 6 9 30.06 1018 2 3 0.15 3.81
2:53 pm 14:53 Cloudy with Heavy Rain 37 2.8 36 2.2 96 96 VRB 7 11 30.06 1018 2 2 0.26 6.60
3:10 pm 15:10 Cloudy with Rain 37 2.8 37 2.8 100 100 VRB 6 9 30.06 1018 3 4 0.07 1.78
3:18 pm 15:18 Cloudy with Light Rain 37 3 37 3 100 100 VRB 6 9 30.06 1018 4 6 0.00 0.00
3:25 pm 15:25 Cloudy with Light Rain 38 3.3 37 2.8 97 97 E 6 9 30.03 1017 2 3 0.09 2.29
3:53 pm 15:53 Cloudy with Light Rain 38 3.3 37 2.8 97 97 VRB 6 9 30.04 1017 2 3 0.10 2.54
4:00 pm 16:00 Cloudy with Light Rain 37 3 37 3 100 100 E 3 6 30.03 1017 6 10 0.00 0.00
4:53 pm 16:53 Cloudy with Light Rain 39 3.9 38 3.3 96 96 E 5 7 30.02 1017 3 5 0.05 1.27
5:50 pm 17:50 Cloudy with Rain 37 3 37 3 100 100 E 5 7 30.00 1016 2 3 0.00 0.00
5:53 pm 17:53 Cloudy with Rain 38 3.3 38 3.3 100 100 E 7 11 30.01 1016 2 3 0.08 2.03
6:09 pm 18:09 Cloudy with Light Rain 38 3.3 38 3.3 100 100 VRB 6 9 30.00 1016 3 5 0.02 0.51
6:53 pm 18:53 Cloudy with Light Rain 39 3.9 38 3.3 96 96 ENE 7 11 30.01 1016 7 11 0.04 1.02
7:40 pm 19:40 Cloudy 37 3 37 3 100 100 E 10 17 29.97 1015 7 11 0.00 0.00
7:53 pm 19:53 Cloudy with Mist and Fog 39 3.9 38 3.3 96 96 N 9 15 30.01 1016 6 10 0.00 0.03
8:53 pm 20:53 Cloudy with Mist and Fog 38 3.3 37 2.8 97 97 NE 8 13 29.98 1015 5 8 0.00 0.00
9:53 pm 21:53 Cloudy with Mist and Fog 38 3.3 38 3.3 100 100 NE 8 13 29.98 1015 4 6 0.00 0.00
10:53 pm 22:53 Cloudy with Mist and Fog 38 3.3 37 2.8 97 97 NNE 8 13 29.99 1016 4 6 0.00 0.00
11:53 pm 23:53 Cloudy with Mist and Fog 38 3.3 37 2.8 97 97 N 9 15 29.98 1015 3 5 0.00 0.00

Powered by AerisWeather